Regional Weather Roundup
Issued by NWS

Home | Current Version | Previous Version | Graphics & Text | Print | Product List | Glossary On
Versions: 1 2 3 4 5 6 7 8 9 10 11 12 13 14 15 16 17 18 19 20 21 22 23 24 25 26 27 28 29 30 31 32 33 34 35 36 37 38 39 40 41 42 43 44 45 46 47 48 49 50
000
ASUS43 KLOT 291104
RWRIL

ILLINOIS REGIONAL WEATHER ROUNDUP
NATIONAL WEATHER SERVICE CHICAGO/ROMEOVILLE IL
600 AM CDT THU SEP 29 2016

NOTE: "FAIR" INDICATES FEW OR NO CLOUDS BELOW 12,000 FEET WITH NO
SIGNIFICANT WEATHER AND/OR OBSTRUCTIONS TO VISIBILITY.

* THESE STATIONS ARE NOT UNDER NWS QUALITY CONTROL. THEY ALSO MAY NOT
  REPORT WEATHER SUCH AS PRECIPITATION OR FOG.

ILZ001-002-007-009-015-016-024-291200-
NORTHWEST ILLINOIS

CITY           SKY/WX    TMP DP  RH WIND       PRES   REMARKS
MOLINE         CLOUDY    55  49  80 VRB6G17   30.22R
STERLING*      CLOUDY    56  53  90 N12       30.19R
$$

ILZ003-004-008-010-011-017-018-291200-
NORTH CENTRAL ILLINOIS

CITY           SKY/WX    TMP DP  RH WIND       PRES   REMARKS
ROCKFORD       CLOUDY    58  53  84 N22G29    30.21R
FREEPORT*      CLOUDY    54  51  89 N10G22    30.24R
ROCHELLE*      MOCLDY    56  53  90 N12G22    30.18R
$$

ILZ005-006-012>014-019>023-291200-
NORTHEAST ILLINOIS

CITY           SKY/WX    TMP DP  RH WIND       PRES   REMARKS
CHICAGO-OHARE  CLOUDY    62  56  80 N20G28    30.11R
CHICAGO-MIDWAY CLOUDY    64  56  75 NE21      30.09R
AURORA         CLOUDY    62  56  80 N15       30.12R
LANSING*       LGT RAIN  60  58  95 NE9       30.08S
WAUKEGAN       MOCLDY    59  56  89 N15G26    30.14R
DUPAGE AIRPORT CLOUDY    61  55  81 N21G28    30.11R
KANKAKEE*      LGT RAIN  58  55  91 CALM      30.08R
WHEELING       CLOUDY    62  55  77 N13G23    30.13R
NORTHERLY ISL    N/A     63  56  78 NE17        N/A
$$

LMZ740>746-291200-
SOUTHERN LAKE MICHIGAN

STATION/POSITION SKY/WX   TEMP    WIND        PRES    VSBY  WAVE
                          AIR SEA DIR/SP/G                  HT/PER
                          (F)     (DEG/KT/KT) (MB)    (MI)  (FT/S)
SOUTHERN BUOY              65 69   50/ 23/ 29 1018.6          7/ 7
WILMETTE HARBOR            62 56   60/ 16/ 21   N/A           8/ 7
HARRISON CRIB              65      40/ 25/ 27   N/A
BURNHAM HARBOR             63      40/ 16/ 20   N/A
CALUMET HARBOR             61      20/ 16/ 23 1018.4R
BURNS HARBOR               62      60/ 24/ 27 1018.3R
MICHIGAN CITY              60      30/ 20/ 21   N/A
MICHIGAN CITY 6N           62 65   50/ 17/ 25   N/A           7/ 7
ST. JOSEPH                 60 64   30/ 16/ 21 1018.4R         6/ 6
$$

ILZ025>027-034>036-040-047-049-050-058-095>099-291200-
WEST-CENTRAL ILLINOIS

CITY           SKY/WX    TMP DP  RH WIND       PRES   REMARKS
QUINCY         CLEAR     52  49  89 NW12      30.20S
GALESBURG*     MOCLDY    52  50  93 N14       30.20R
MACOMB*        CLEAR     52  49  92 N14       30.21R
$$

ILZ028>032-037-038-041>044-048-051>054-059>061-291200-
CENTRAL ILLINOIS

CITY           SKY/WX    TMP DP  RH WIND       PRES   REMARKS
BLOOMINGTON    CLOUDY    57  53  86 N21       30.09R
DECATUR        CLOUDY    58  52  80 N17G28    30.07S
PEORIA         CLOUDY    56  53  90 N9G20     30.14S
LINCOLN*       CLOUDY    56  53  88 NW9       30.11R
SPRINGFIELD    PTCLDY    55  50  83 NW10G20   30.12R
TAYLORVILLE    NOT AVBL
$$

ILZ033-039-045-046-055>057-062-063-291200-
EAST-CENTRAL ILLINOIS

CITY           SKY/WX    TMP DP  RH WIND       PRES   REMARKS
CHAMPAIGN      CLOUDY    58  55  90 N13       30.03S
MATTOON        CLOUDY    56  53  90 N10       30.03R
$$

ILZ079-100>102-291200-
SOUTHWEST ILLINOIS

CITY           SKY/WX    TMP DP  RH WIND       PRES   REMARKS
ALTON          PTCLDY    52  49  88 NW9       30.13
CAHOKIA*       CLEAR     56  48  74 NW13      30.13R
SPARTA*        CLEAR     52  49  92 NW5       30.11F
$$

ILZ064>066-069>071-074>076-080>082-084>086-088>090-092>094-291200-
SOUTH-CENTRAL ILLINOIS

CITY           SKY/WX    TMP DP  RH WIND       PRES   REMARKS
CARBONDALE     PTCLDY    52  50  93 NW8       30.09R
MT. VERNON     CLOUDY    55  46  71 NW3       30.07R
CENTRALIA*     PTCLDY    55  52  90 NW10      30.06S
SALEM*         CLOUDY    55  51  86 NW8       30.07R
METROPOLIS*    CLEAR     51  49  92 CALM      30.09R
$$

ILZ067-068-072-073-078-083-087-091-291200-
SOUTHEAST ILLINOIS

CITY           SKY/WX    TMP DP  RH WIND       PRES   REMARKS
LAWRENCEVILLE  LGT RAIN  55  52  89 W6        30.02S
FLORA*         CLOUDY    56  52  86 NW10      30.04R
HARRISBURG*    CLOUDY    53  51  94 W8        30.06S
ROBINSON*      RAIN      54  54  99 NW3       30.02S
$$

ABBREVIATIONS USED IN REMARKS
   TC - TEMPERATURE IN CELSIUS
  WCI - WIND CHILL INDEX
   HX - HEAT INDEX
  VSB - VISIBILITY
$$




USA.gov is the U.S. government's official web portal to all federal, state and local government web resources and services.